Location: Unspecified
(42.9300°N, 71.1866°W)
Time: 09:48:22
(UTC-04:00)

CZ-3 Stage 3 - Visible Passes

Search period start: 23 July 2014 00:00
Search period end: 02 August 2014 00:00
Orbit: 424 x 34828 km, 30.6° (Epoch: 21 July)

Date Brightness Start Highest point End Pass type
(mag) Time Alt. Az. Time Alt. Az. Time Alt. Az.
23 Jul 7.5 05:29:39 10° S 09:51:53 26° SSE 10:08:00 10° ESE visible
26 Jul 7.4 05:15:58 10° S 09:51:28 28° SSE 10:06:51 10° ESE visible
27 Jul 9.4 05:05:14 10° SE 05:32:26 11° SE 05:51:30 10° SE visible
29 Jul 7.4 05:03:04 10° S 09:50:54 29° S 10:05:36 10° ESE visible
30 Jul 9.3 04:33:49 10° SSE 05:33:23 12° SE 06:03:32 10° SE visible
01 Aug 7.3 04:50:54 10° S 09:50:12 31° S 10:04:15 10° ESE visible
